Miscellaneous Local Product
Issued by NWS Hastings, NE

Home | Current Version | Previous Version | Text Only | Print | Product List | Glossary On
Versions: 1 2 3 4 5 6 7 8 9 10 11 12 13 14 15 16 17 18 19 20 21 22 23 24 25 26 27 28 29 30 31 32 33 34 35 36 37 38 39 40 41 42 43 44 45 46 47 48 49 50
000
AXUS43 KGID 192102
MISGRI

GID CWA HOURLY WEATHER ROUNDUP
NATIONAL WEATHER SERVICE HASTINGS NE
400 PM CDT SAT APR 19 2014

NOTE: "FAIR" INDICATES FEW OR NO CLOUDS BELOW 12,000 FEET WITH NO
SIGNIFICANT WEATHER AND/OR OBSTRUCTIONS TO VISIBILITY.

...SOUTH CENTRAL NEBRASKA...

CITY           SKY/WX    TMP DP  RH WIND       PRES   REMARKS
GRAND ISLAND   PTSUNNY   75  49  39 SW8       29.96F
HASTINGS       CLOUDY    74  48  39 VRB3      29.94F
KEARNEY        CLOUDY    72  48  43 E5        29.96F
ORD            PTSUNNY   68  47  46 CALM      29.98F
YORK           CLOUDY    75  48  38 S17       29.95F
AURORA         CLOUDY    74  50  43 S5        29.96F
LEXINGTON      MOSUNNY   69  50  50 NE10G16   29.97F
HOLDREGE       PTSUNNY   71  48  44 NE5       29.95F
HEBRON         PTSUNNY   78  47  33 S21G26    29.95F

...NEBRASKA PANHANDLE...

CITY           SKY/WX    TMP DP  RH WIND       PRES   REMARKS
CHADRON        PTSUNNY   63  29  27 SE3       30.02F
ALLIANCE       PTSUNNY   63  28  26 E12G17    30.03F
SCOTTSBLUFF    CLOUDY    64  31  28 S12       30.03F
SIDNEY         CLOUDY    62  34  35 E8        30.06F

...WESTERN AND NORTH CENTRAL NEBRASKA...

CITY           SKY/WX    TMP DP  RH WIND       PRES   REMARKS
VALENTINE      PTSUNNY   63  16  16 E5        30.03F
AINSWORTH      PTSUNNY   67  25  20 E7G17     30.02F
ONEILL         PTSUNNY   66  36  32 NE9       30.02S
BROKEN BOW     CLOUDY    67  47  48 E12       29.99F
IMPERIAL       CLOUDY    68  40  35 NE16      30.00F
NORTH PLATTE   PTSUNNY   68  43  40 NE8G20    29.99F
MCCOOK         PTSUNNY   70  49  47 NE18G26   29.95F

...EASTERN NEBRASKA...

CITY           SKY/WX    TMP DP  RH WIND       PRES   REMARKS
NORFOLK        CLOUDY    72  47  40 SW7       29.97S
SO SIOUX CITY  CLOUDY    78  48  34 SW17G28   29.96F
TEKAMAH        CLOUDY    78  45  30 S17       29.97F
COLUMBUS       CLOUDY    73  48  40 S12G21    29.97F
ALBION         CLOUDY    69  47  44 CALM      29.99S
OMAHA EPPLEY   CLOUDY    78  43  28 S17G31    29.98F
OFFUTT AFB     PTSUNNY   79  45  30 S17G23    29.98F
MILLARD        CLOUDY    76  46  33 S14G22    29.98S
LINCOLN        PTSUNNY   81  47  30 S18G29    29.97F
NEBRASKA CITY  CLOUDY    78  43  28 S23G30    30.00F
BEATRICE       SUNNY     80  47  31 S18G29    29.97F
FALLS CITY     NOT AVBL

...NORTHERN KANSAS...

CITY           SKY/WX    TMP DP  RH WIND       PRES   REMARKS
GOODLAND       SUNNY     71  46  40 NE16G25   29.98R
HILL CITY      CLOUDY    82  46  28 VRB5      29.88F
PHILLIPSBURG   SUNNY     81  43  26 S5        29.89F
SMITH CENTER   SUNNY     81  48  32 S15       29.90F
BELOIT         MOSUNNY   82  48  30 S22G28    29.91F
HAYS           PTSUNNY   82  46  28 SW25G32   29.90S
RUSSELL        PTSUNNY   81  49  32 S25G36    29.90F
CONCORDIA      PTSUNNY   80  49  33 S24G35    29.95F
SALINA         MOSUNNY   82  49  31 S23G37    29.96F
TOPEKA         SUNNY     79  45  29 S15G28    30.04F



USA.gov is the U.S. government's official web portal to all federal, state and local government web resources and services.